Zurück zum Katalog

CZ-4 DEB

AktivSSO
NORAD 26118·DEBRIS·🇨🇳 China

Gestartet Oct 14, 1999 von Taiyuan Satellite Launch Center

Loading…

Nächste Überflüge (nächste 24 Stunden)

TLE

AktuellSource: Space-Track

Epoche: Sep 14, 2026, 10:42 UTC

1 26118U 99057E   26257.44621290  .00002139  00000-0  81248-3 0  9999
2 26118  99.0999 317.7423 0277272  90.8918 272.4030 14.13023330354420

Verfolge CZ-4 DEB in Echtzeit mit AllMySat

Download on the App Store